AirNav   TITAN Aviation Fuels
 
 613 users online  

KGDW Gladwin Zettel Memorial Airport
Gladwin, Michigan, USA

GOING TO GLADWIN?


FAA INFORMATION EFFECTIVE 19 MAY 2022

Location

FAA Identifier: GDW
Lat/Long: 43-58-14.1220N 084-28-30.0710W
43-58.235367N 084-28.501183W
43.9705894,-84.4750197
(estimated)
Elevation: 774.1 ft. / 235.9 m (surveyed)
Variation: 04W (1980)
From city: 1 mile SE of GLADWIN, MI
Time zone: UTC -4 (UTC -5 during Standard Time)
Zip code: 48624

Airport Operations

Airport use: Open to the public
Activation date: 04/1940
Control tower: no
ARTCC: CLEVELAND CENTER
FSS: LANSING FLIGHT SERVICE STATION
NOTAMs facility: LAN (NOTAM-D service available)
Attendance: 0900-1700
UNATNDD MAJOR HOLS. FOR SVC AFT HRS CALL AMGR CELL.
Wind indicator: lighted
Segmented circle: yes
Lights: ACTVT REIL RWY 09 & 27; PAPI RWY 09 & 27; MIRL RWY 09/27 - CTAF.
Beacon: white-green (lighted land airport)
Operates sunset to sunrise.

Airport Communications

CTAF/UNICOM: 122.8
GREAT LAKES APPROACH: 126.45
GREAT LAKES DEPARTURE: 126.45
  • APCH/DEP SVC PRVDD BY CLEVELAND ARTCC (ZOB) ON FREQS 127.7/290.425 (SAGINAW RCAG) WHEN GREAT LAKES APCH CTL CLSD.

Nearby radio navigation aids

VOR radial/distance  VOR name  Freq  Var
MOPr034/23.8MOUNT PLEASANT VOR/DME110.6005W
MBSr330/31.5SAGINAW VOR/DME112.9003W

Airport Services

Fuel available: 100LL JET-A+
100LL:100LL AVBL H24 SELF SVC VIA CREDIT CARD. JET A+ AVBL FULL SVC DRG BUS HRS OR BY ARNGMT.
Parking: tiedowns

Runway Information

Runway 9/27

Dimensions: 4699 x 75 ft. / 1432 x 23 m
Surface: asphalt, in good condition
Weight bearing capacity: 
Single wheel: 44.0
Double wheel: 60.0
Double tandem: 90.0
Runway edge lights: medium intensity
RUNWAY 9  RUNWAY 27
Latitude: 43-58.304540N43-58.335602N
Longitude: 084-28.971940W084-27.901957W
Elevation: 771.3 ft.772.7 ft.
Traffic pattern: leftleft
Runway heading: 092 magnetic, 088 true272 magnetic, 268 true
Markings: nonprecision, in good conditionnonprecision, in good condition
Visual slope indicator: 2-light PAPI on left (3.00 degrees glide path)2-light PAPI on left (3.00 degrees glide path)
Runway end identifier lights: yesyes
Touchdown point: yes, no lightsyes, no lights

Runway 15/33

Dimensions: 2580 x 150 ft. / 786 x 46 m
Surface: turf, in fair condition
Runway edge markings: 3 FT YELLOW CONES.
Operational restrictions: CLSD WHEN SNOW COVERED EXC FOR SKI EQUIPPED ACFT.
RUNWAY 15  RUNWAY 33
Latitude: 43-58.276013N43-57.886140N
Longitude: 084-28.734625W084-28.501702W
Elevation: 772.7 ft.764.3 ft.
Traffic pattern: leftleft
Runway heading: 161 magnetic, 157 true341 magnetic, 337 true
Touchdown point: yes, no lightsyes, no lights
Obstructions: none58 ft. tree, 728 ft. from runway, 209 ft. right of centerline, 12:1 slope to clear

Airport Ownership and Management from official FAA records

Ownership: Publicly-owned
Owner: CITY/CO OF GLADWIN
1000 W CEDAR AVE
GLADWIN, MI 48624-1814
Phone 989-426-9231
CITY HALL.
Manager: MICHAEL HARGRAVE
735 S STATE ST
GLADWIN, MI 48624-2258
Phone 989-426-4201
CELL 989-578-2174.

Airport Operational Statistics

Aircraft based on the field: 15
Single engine airplanes: 12
Multi engine airplanes: 2
Jet airplanes: 1
    
Aircraft operations: avg 85/week *
50% transient general aviation
50% local general aviation
* for 12-month period ending 31 December 2016

Additional Remarks

DEER & LRG BIRDS ON & INVOF ARPT.
UAS OPR W OF RWY 15/33.
TRML BLDG ACCESS 5-3-2-1-*.
FOR CD CTC GREAT LAKES APCH AT 269-459-3345, WHEN APCH CLSD CTC CLEVELAND ARTCC AT 440-774-0224/0490.

Instrument Procedures

NOTE: All procedures below are presented as PDF files. If you need a reader for these files, you should download the free Adobe Reader.

NOT FOR NAVIGATION. Please procure official charts for flight.
FAA instrument procedures published for use from 19 May 2022 at 0901Z to 16 June 2022 at 0900Z.

 
IAPs - Instrument Approach Procedures
RNAV (GPS) RWY 09   download (211KB)
RNAV (GPS) RWY 27   download (235KB)
NOTE: Special Take-Off Minimums/Departure Procedures apply   download (327KB)

Other nearby airports with instrument procedures:

48D - Clare Municipal Airport (14 nm SW)
KIKW - Jack Barstow Airport (21 nm SE)
Y31 - West Branch Community Airport (21 nm NE)
KMOP - Mount Pleasant Municipal Airport (24 nm SW)
KHTL - Roscommon County - Blodgett Memorial Airport (25 nm N)
 
Loc | Ops | Rwys | IFR | FBO | Links
Com | Nav | Svcs | Stats | Notes
Area around KGDW (Gladwin Zettel Memorial Airport)
 
Road maps at: MapQuest Bing Google
 
Aerial photo
WARNING: Photo may not be current or correct
Aerial photo of KGDW (Gladwin Zettel Memorial Airport)
Photo by Carol Batten

Do you have a better or more recent aerial photo of Gladwin Zettel Memorial Airport that you would like to share? If so, please send us your photo.

 
Sectional chart

 
Airport distance calculator
Flying to Gladwin Zettel Memorial Airport? Find the distance to fly.

From to KGDW

Sunrise and sunset
Times for 20-May-2022
 Local
(UTC-4)
 Zulu
(UTC)
Morning civil twilight05:3409:34
Sunrise06:0810:08
Sunset21:0101:01
Evening civil twilight21:3501:35

Current date and time
Zulu (UTC)  20-May-2022 04:50:12
Local (UTC-4)  20-May-2022 00:50:12
 
METAR
KIKW 
21nm SE 
200435Z AUTO 15004KT 10SM CLR 20/15 A2953 RMK AO2 T01950150
KY31 
21nm NE 
200435Z AUTO 09003KT 10SM SCT120 16/14 A2954 RMK AO2 T01620136
KMOP 
24nm SW 
200435Z AUTO 14004KT 10SM CLR 19/15 A2951 RMK AO2 T01930151
KHTL 
24nm N 
200353Z AUTO 08006KT 10SM CLR 17/13 A2954 RMK AO2 SLP002 T01670133
KMBS 
31nm SE 
200353Z 16007KT 10SM CLR 20/15 A2955 RMK AO2 SLP003 T02000150
KAMN 
40nm S 
200435Z AUTO 15006KT 10SM CLR 19/15 A2952 RMK AO2 T01910151
TAF
KMBS 
31nm SE 
191720Z 1918/2018 22012KT P6SM SCT045 BKN070 FM200200 16007KT P6SM BKN250 WS020/21040KT FM201000 18014KT P6SM BKN020 FM201600 21016G27KT P6SM BKN150 OVC250
NOTAMs
Click for the latest NOTAMs
NOTAMs are issued by the DoD/FAA and will open in a separate window not controlled by AirNav.

 

 
 

FBO, Fuel Providers, and Aircraft Ground Support

  
 Business Name 
 
 Contact 
 
 Services / Description 
 
Fuel Prices
 
Comments
  
Gladwin Zettel Memorial Airport 989-426-4201 Aviation fuel

More info about Gladwin Zettel Memorial Airport
Avfuel
100LL Jet A
AS $5.50 --- 
FS $5.50 $5.50 
 Updated 19-May-2022
 
   2 read write
AS=Assisted/Self Service
FS=Full service
Update Fuel Prices
 

Would you like to see your business listed on this page?

 If your business provides an interesting product or service to pilots, flight crews, aircraft, or users of the Gladwin Zettel Memorial Airport, you should consider listing it here.  To start the listing process, click on the button below
 
Add a business
 

Other Pages about Gladwin Zettel Memorial Airport

Page from the Michigan Airport Directory (PDF)
 
Update a link
 
Copyright © AirNav, LLC. All rights reserved. Privacy Policy  Contact